Lethbridge,

1:28 AM MDT on October 18, 2017 (GMT -0600)
Lethbridge

Weather History for CYQL - October, 2012

Change the Weather History Date:

Sunday, October 28, 2012

  Actual Average Record
Temperature  
Mean Temperature 33 °F -  
Max Temperature 49 °F 47 °F 77 °F (2008)
Min Temperature 17 °F 24 °F 1 °F (2013)
Degree Days  
Heating Degree Days 32    
Moisture  
Dew Point 27 °F    
Average Humidity 84    
Maximum Humidity 100    
Minimum Humidity 35    
Precipitation  
Precipitation 0.00 in - - ()
Sea Level Pressure  
Sea Level Pressure 29.89 in    
Wind  
Wind Speed 7 mph ()    
Max Wind Speed 22 mph    
Max Gust Speed 38 mph    
Visibility 6.3 miles    
Events Snow    
Averages and records for this station are not official NWS values.
T = Trace of Precipitation, MM = Missing Value Source: Averaged Metar Reports

Daily Weather History Graph

Daily Weather History Graph

Search for Another Location

Airport or City:

Trip Planner

Search our weather history database for the weather conditions in past years. The results will help you decide how hot, cold, wet, or windy it might be!

Date:

Astronomy

Oct. 28, 2012 Rise Set
Actual Time 8:14 AM MDT 6:14 PM MDT
Civil Twilight 7:40 AM MDT 6:47 PM MDT
Nautical Twilight 7:03 AM MDT 7:25 PM MDT
Astronomical Twilight 6:26 AM MDT 8:02 PM MDT
Moon 5:34 PM MDT (10/28) 7:09 AM MDT (10/28)
Length of Visible Light 11h 07m
Length of Day
10h 00m
Waxing Gibbous, 99% of the Moon is Illuminated
Oct 28
Waxing Gibbous
Oct 29
Full
Nov 6
Last Quarter
Nov 13
New
Nov 20
First Quarter

Hourly Weather History & Observations

Time (MDT) Temp. Windchill Dew Point Humidity Pressure Visibility Wind Dir Wind Speed Gust Speed Precip Events Conditions
12:00 AM 23 °F - 21 °F 89% 30.03 in 4 mi ESE 3.5 mph - - Snow Light Snow
12:00 AM 23.0 °F 18.4 °F 21.2 °F 93% 30.03 in 4.0 mi ESE 3.5 mph - N/A Snow Light Snow
12:03 AM 23.0 °F 18.4 °F 21.2 °F 93% 30.03 in 4.0 mi ESE 3.5 mph - N/A   Overcast
12:19 AM 23.0 °F 18.4 °F 21.2 °F 93% 30.02 in 4.0 mi East 3.5 mph - N/A Snow Light Snow
12:45 AM 23.0 °F 18.4 °F 21.2 °F 93% 30.00 in 3.0 mi ESE 3.5 mph - N/A   Overcast
12:47 AM 23.0 °F 18.4 °F 21.2 °F 93% 30.00 in 2.5 mi SE 3.5 mph - N/A   Overcast
1:00 AM 23.0 °F 18.4 °F 21.2 °F 93% 29.99 in 2.5 mi ESE 3.5 mph - N/A   Overcast
1:17 AM 23.0 °F 17.0 °F 21.2 °F 93% 29.98 in 3.0 mi SE 4.6 mph - N/A   Overcast
2:00 AM 23.0 °F 15.8 °F 23.0 °F 100% 29.94 in 3.0 mi SE 5.8 mph - N/A   Overcast
2:58 AM 23.0 °F 17.0 °F 23.0 °F 100% 29.92 in 2.5 mi WSW 4.6 mph - N/A   Overcast
3:00 AM 23.0 °F 17.0 °F 23.0 °F 100% 29.91 in 2.5 mi WSW 4.6 mph - N/A   Overcast
3:55 AM 26.6 °F - 24.8 °F 93% 29.88 in 3.0 mi Variable 2.3 mph - N/A   Overcast
4:00 AM 26.6 °F 22.6 °F 24.8 °F 93% 29.87 in 4.0 mi SSW 3.5 mph - N/A   Overcast
5:00 AM 26.6 °F 22.6 °F 24.8 °F 93% 29.86 in 3.0 mi NW 3.5 mph - N/A   Overcast
5:33 AM 30.2 °F 26.7 °F 28.4 °F 93% 29.84 in 6.0 mi WSW 3.5 mph - N/A   Overcast
6:00 AM 34 °F - 30 °F 78% 29.83 in 10 mi South 13.8 mph - -   Overcast
6:00 AM 33.8 °F 23.9 °F 30.2 °F 87% 29.82 in 10.0 mi South 15.0 mph - N/A   Overcast
7:00 AM 33.8 °F 25.3 °F 30.2 °F 87% 29.81 in 10.0 mi South 11.5 mph - N/A   Overcast
8:00 AM 32.0 °F 24.2 °F 28.4 °F 87% 29.79 in 15.0 mi SSW 9.2 mph - N/A   Overcast
9:00 AM 30.2 °F - 26.6 °F 86% 29.80 in 40.0 mi SSW 2.3 mph - N/A   Overcast
10:00 AM 30.2 °F - 28.4 °F 93% 29.80 in 30.0 mi ESE 2.3 mph - N/A   Mostly Cloudy
11:00 AM 32.0 °F 27.5 °F 26.6 °F 80% 29.81 in 30.0 mi NW 4.6 mph - N/A   Mostly Cloudy
12:00 PM 34 °F - 28 °F 70% 29.80 in 9 mi North 3.5 mph - -  
12:00 PM 33.8 °F 29.6 °F 28.4 °F 81% 29.80 in 30.0 mi NW 4.6 mph - N/A   Mostly Cloudy
1:00 PM 42.8 °F 35.1 °F 33.8 °F 70% 29.78 in 30.0 mi WSW 16.1 mph - N/A   Scattered Clouds
2:00 PM 42.8 °F 35.1 °F 33.8 °F 70% 29.79 in 25.0 mi WSW 16.1 mph - N/A   Mostly Cloudy
3:00 PM 44.6 °F 37.2 °F 33.8 °F 66% 29.78 in 30.0 mi WSW 17.3 mph - N/A   Mostly Cloudy
4:00 PM 44.6 °F 38.1 °F 32.0 °F 61% 29.79 in 30.0 mi WSW 13.8 mph - N/A   Mostly Cloudy
5:00 PM 48.2 °F - 30.2 °F 50% 29.80 in 30.0 mi WSW 21.9 mph 38.0 mph N/A   Mostly Cloudy
6:00 PM 49 °F - 30 °F 35% 29.79 in 10 mi WSW 20.7 mph - -  
6:00 PM 48.2 °F - 28.4 °F 46% 29.79 in 30.0 mi WSW 20.7 mph 28.8 mph N/A   Mostly Cloudy
7:00 PM 42.8 °F 35.4 °F 30.2 °F 61% 29.83 in 15.0 mi WNW 15.0 mph - N/A   Mostly Cloudy
9:00 PM 41.0 °F 33.9 °F 28.4 °F 61% 29.88 in 15.0 mi WNW 12.7 mph - N/A   Mostly Cloudy
10:00 PM 39.2 °F 31.6 °F 30.2 °F 70% 29.91 in 15.0 mi SW 12.7 mph - N/A   Mostly Cloudy
10:47 PM 32.0 °F 21.6 °F 28.4 °F 87% 29.96 in 9.0 mi NNE 15.0 mph 25.3 mph N/A   Mostly Cloudy
10:57 PM 30.2 °F 17.8 °F 28.4 °F 93% 29.96 in 9.0 mi NNE 19.6 mph - N/A   Scattered Clouds
11:00 PM 30.2 °F 19.3 °F 28.4 °F 93% 29.97 in 9.0 mi NNE 15.0 mph 23.0 mph N/A   Scattered Clouds
11:07 PM 28.4 °F 17.5 °F 28.4 °F 100% 29.97 in 5.0 mi NNE 13.8 mph 20.7 mph N/A   Mostly Cloudy
11:08 PM 28.4 °F 17.5 °F 28.4 °F 100% 29.98 in 4.0 mi NNE 13.8 mph 19.6 mph N/A   Mostly Cloudy
11:11 PM 28.4 °F 16.2 °F 28.4 °F 100% 29.98 in 2.2 mi NNE 17.3 mph - N/A   Mostly Cloudy
11:13 PM 28.4 °F 16.6 °F 28.4 °F 100% 29.98 in 1.8 mi NNE 16.1 mph - N/A   Mostly Cloudy
11:18 PM 28.4 °F 17.5 °F 28.4 °F 100% 29.99 in 1.0 mi NNE 13.8 mph - N/A Snow Light Snow